Wind_Speed
26 26 26 25 26 26 27 27 27 28 29 30 30 31 33 33 34 34 34 33 34 35 36 38 40 41 42 44 46 49 48 44 42 46 51 50 45 44 44 41 39 42 45 46 46 45 45 47 48 47 45 45 45 44 43 43 41 40 40 43 43 42 43
26 26 26 26 26 27 27 27 28 29 30 30 31 31 32 33 34 34 34 34 34 35 36 37 39 40 41 43 44 47 49 47 45 45 48 50 49 48 47 44 42 43 45 47 49 48 46 46 47 47 45 44 44 44 44 44 42 41 42 46 47 44 42
26 26 26 26 27 28 28 29 29 30 30 31 31 31 32 33 34 34 35 35 34 35 36 37 38 39 40 41 43 45 48 50 49 46 47 49 50 50 49 46 46 46 46 47 49 49 48 47 46 46 45 44 44 44 44 44 44 43 45 47 48 47 44
27 28 28 27 28 28 29 30 31 32 32 32 32 33 33 33 34 35 35 35 35 35 36 37 38 38 39 40 41 43 46 51 52 49 48 49 50 51 51 49 49 49 49 50 50 50 50 49 48 47 46 45 44 44 44 45 44 45 47 48 49 49 48
30 30 30 30 30 30 30 31 32 33 34 34 34 34 34 34 34 34 35 36 35 36 36 37 37 38 38 38 40 42 44 50 54 51 49 51 51 52 52 52 52 52 51 52 52 52 52 52 50 49 48 47 46 45 45 45 45 47 48 49 49 50 50
34 33 33 33 34 34 33 33 34 35 35 35 35 35 35 34 34 34 35 35 36 36 37 37 37 37 38 38 39 41 43 48 54 53 50 52 54 54 53 54 53 53 52 52 51 51 52 53 53 52 51 51 50 48 47 47 47 48 49 50 51 51 51
39 38 37 37 38 38 37 37 36 36 37 37 37 36 36 36 35 35 34 35 36 37 38 39 39 38 38 38 39 40 43 46 52 54 52 52 56 57 57 56 55 54 53 52 51 51 51 51 51 51 52 54 53 51 50 50 50 50 51 52 52 52 52
43 42 42 41 41 41 41 41 41 40 39 39 40 39 38 37 37 36 35 35 36 37 38 39 40 40 39 39 39 40 43 46 50 53 53 52 55 59 60 59 58 57 56 55 53 52 51 50 49 48 49 51 54 54 54 53 53 52 53 54 54 54 53
46 46 45 45 45 45 45 44 44 43 42 42 41 42 41 41 40 39 38 37 36 36 37 39 40 42 42 41 41 41 43 46 49 51 52 52 54 57 61 62 61 60 59 58 56 55 54 52 51 50 50 50 51 53 54 54 54 55 55 56 56 56 55
48 48 48 48 48 48 48 47 47 46 46 45 44 44 44 44 43 43 41 40 39 38 37 38 39 41 43 43 43 43 44 46 49 51 52 52 53 55 59 62 63 63 62 61 59 59 58 57 55 53 53 53 52 52 53 53 54 54 55 57 58 58 58
50 49 49 49 49 50 50 50 49 49 48 48 48 48 47 47 47 46 46 45 44 42 41 40 39 40 42 44 45 45 45 46 48 51 53 53 53 54 57 60 62 63 65 64 62 61 61 62 61 59 57 57 56 55 55 55 55 55 55 57 58 59 59
52 51 51 51 51 50 50 51 52 52 52 52 52 51 51 50 50 49 49 49 48 47 46 44 43 42 42 43 45 46 46 47 48 50 53 55 55 55 56 58 60 62 64 65 65 64 62 63 64 64 62 61 60 60 59 59 59 58 58 59 59 59 59
52 51 51 52 52 51 50 51 52 53 54 55 55 55 55 54 53 52 52 51 51 50 50 49 48 46 45 44 44 46 47 47 48 50 52 55 57 57 58 58 59 61 62 64 65 65 65 64 64 64 65 65 65 63 62 63 63 63 63 63 63 62 61
53 52 51 51 52 52 51 52 53 53 55 57 57 58 58 58 57 56 55 54 53 53 52 52 52 51 50 48 47 47 47 48 49 50 52 54 56 58 59 60 61 61 62 63 64 65 66 66 65 65 65 67 68 68 65 64 65 66 67 67 66 65 64
57 56 54 54 52 50 50 52 54 54 55 57 59 59 59 60 60 59 58 57 56 56 55 55 55 54 54 53 52 51 50 49 49 50 52 53 55 57 58 60 61 63 63 63 64 65 66 67 67 67 66 66 69 71 71 68 66 66 68 69 71 70 69
60 59 58 57 55 51 49 52 55 56 56 56 59 61 61 60 61 61 61 61 60 60 59 59 58 57 57 57 56 56 54 53 52 51 52 53 55 57 58 59 60 62 63 65 65 66 67 68 69 69 69 69 69 70 72 73 71 69 68 68 70 73 73
62 61 59 58 58 55 52 54 57 58 58 58 59 60 61 62 63 62 62 63 63 63 63 63 62 61 60 59 59 59 58 57 57 55 55 55 56 57 58 60 60 61 62 64 65 66 67 69 70 71 71 72 72 72 72 73 74 74 72 70 69 70 73
60 60 58 55 56 57 57 61 64 62 60 59 59 59 60 63 64 64 64 65 65 66 66 65 65 64 63 63 62 62 61 61 61 60 59 58 58 59 59 60 61 62 63 63 64 65 66 68 69 70 71 72 73 74 74 75 75 76 76 76 74 72 71
56 57 53 47 47 52 57 62 66 65 63 61 61 62 62 63 63 64 67 68 68 69 68 67 67 66 66 66 66 65 65 64 64 64 64 63 63 62 62 62 62 63 64 65 65 65 66 67 67 68 69 71 72 73 74 76 76 77 77 78 79 78 77
56 57 55 49 49 54 59 62 64 66 66 63 63 66 66 64 64 66 70 70 69 70 70 70 69 69 69 69 69 69 68 68 67 67 67 67 67 67 66 66 66 65 65 66 66 67 67 67 67 68 68 69 70 71 72 74 75 76 77 78 79 80 80
58 59 59 59 62 65 66 67 67 67 65 62 62 64 66 65 64 66 70 70 69 71 72 72 73 72 72 72 72 72 71 71 71 70 70 70 70 70 70 69 69 69 69 68 68 68 68 68 69 69 69 70 70 71 71 72 73 74 75 75 76 77 78
61 61 61 63 65 67 69 69 69 67 64 62 63 64 66 65 63 65 69 69 68 70 72 74 74 75 76 76 75 75 75 74 73 73 73 73 72 73 73 73 73 73 73 72 71 70 70 70 70 71 71 71 72 72 73 73 74 74 74 74 75 75 76
64 64 64 64 65 66 67 68 68 67 64 63 65 65 65 64 62 64 68 68 67 70 72 74 74 76 78 78 78 79 78 77 76 75 75 75 76 76 77 76 76 76 76 76 75 74 74 73 73 73 73 73 74 74 75 75 76 76 76 75 76 76 76
68 67 66 67 67 67 67 67 67 67 65 64 65 65 64 63 62 63 65 67 68 70 71 73 75 77 78 79 80 81 81 79 78 78 78 78 78 79 79 79 79 79 79 79 78 78 78 77 77 76 76 76 76 76 76 77 77 77 78 77 78 78 78
71 70 69 70 70 70 70 69 69 69 67 65 65 66 66 66 67 66 66 68 69 70 70 73 75 76 77 79 81 82 82 81 81 81 81 81 82 82 81 81 82 82 82 82 82 81 81 81 81 81 80 80 79 79 78 78 78 79 79 79 79 80 81
73 72 72 72 72 72 72 72 72 72 70 68 67 68 68 68 69 70 69 70 70 69 70 73 75 76 77 78 79 81 81 80 82 83 82 83 84 85 84 84 84 84 84 85 85 84 84 84 84 84 84 84 83 83 82 81 81 81 81 81 81 82 83
75 74 75 75 75 75 75 75 75 75 74 73 71 71 71 71 71 71 71 71 70 68 71 74 75 76 77 77 77 79 80 80 81 82 82 83 85 86 87 86 86 86 87 87 87 87 87 87 87 87 87 87 87 87 86 85 85 85 85 85 84 85 85
76 76 77 77 76 77 77 77 77 77 77 76 75 74 74 73 73 73 72 72 69 68 71 75 76 76 76 76 76 78 79 80 81 81 80 81 84 85 86 87 88 89 90 90 89 89 90 90 90 90 90 90 90 90 90 90 90 89 89 89 88 88 88
78 78 78 78 78 78 78 78 78 78 79 78 77 77 76 76 76 75 73 72 69 68 71 75 75 75 75 75 77 78 79 80 81 81 80 81 82 83 84 85 87 89 91 91 91 91 92 93 93 93 93 92 92 93 93 93 94 94 93 93 92 91 91
79 80 80 80 80 79 79 79 79 79 79 79 78 78 78 78 77 75 74 72 69 69 73 75 73 73 74 75 77 79 80 81 81 81 81 81 82 82 82 84 86 88 89 91 91 92 93 95 95 95 95 95 95 95 96 97 97 97 97 96 95 94 94
81 81 81 81 81 81 81 80 80 80 80 80 80 80 79 79 79 76 74 74 73 73 75 74 72 73 74 75 77 79 80 81 82 82 82 81 81 81 82 83 84 86 87 88 89 90 92 94 96 96 97 97 97 98 99 100 100 100 99 99 98 98 98
82 82 82 82 82 82 82 81 81 81 81 81 81 81 80 81 80 77 76 77 76 76 75 74 73 74 75 76 77 79 80 81 81 81 81 81 81 82 82 83 84 84 85 86 87 89 90 92 94 95 97 98 99 100 101 102 102 102 101 101 101 101 101
83 83 83 83 82 82 82 82 82 82 82 82 82 82 82 82 81 79 78 79 78 76 75 75 76 76 77 78 79 79 80 81 81 80 81 81 81 81 82 83 83 82 83 85 86 87 89 90 91 93 95 97 99 101 103 104 104 104 104 103 104 104 104
82 82 82 82 82 82 82 82 82 82 82 82 82 82 82 81 80 80 80 79 78 76 76 77 78 79 80 80 80 80 80 81 80 80 80 80 81 81 81 82 81 81 82 83 84 86 87 88 90 91 92 94 96 98 100 103 104 105 106 106 106 106 106
81 81 81 81 81 81 81 81 81 80 80 80 81 81 81 80 79 79 79 79 78 77 77 78 80 81 80 80 80 80 80 80 80 80 80 80 80 79 80 80 80 79 80 82 82 83 85 87 88 89 90 92 94 95 97 99 101 103 105 106 107 108 108
79 79 79 79 78 78 79 79 78 77 77 77 78 78 78 77 76 75 76 77 77 77 77 77 78 79 79 79 79 79 79 79 79 80 79 79 78 78 78 78 78 77 78 79 79 80 81 83 85 86 88 90 91 93 94 95 96 98 100 102 104 106 107
74 74 75 75 75 75 74 74 74 74 74 74 74 74 74 73 71 71 73 75 75 74 74 74 75 76 77 77 77 77 77 77 77 77 77 76 75 75 75 75 75 74 74 75 76 78 79 80 81 83 84 86 88 89 90 91 92 93 94 96 98 100 102
Wind_Direction
246 243 240 238 237 237 237 236 236 237 238 238 238 238 236 235 234 234 236 238 239 238 235 232 230 229 228 227 225 224 221 214 210 216 223 225 222 217 215 217 221 221 220 222 224 227 228 228 228 227 230 235 240 239 235 233 232 231 232 234 235 238 242
248 245 243 241 240 240 240 240 241 241 240 240 241 241 241 239 239 239 239 240 241 240 239 235 232 231 229 228 227 225 222 216 211 214 220 224 223 219 217 220 223 223 222 223 225 227 229 231 231 230 231 234 238 240 238 234 232 232 233 235 235 237 243
251 248 246 244 243 243 243 244 245 246 245 244 244 244 243 242 241 242 242 243 243 241 240 239 236 233 231 230 229 227 223 217 214 214 217 221 223 220 217 220 224 225 224 225 227 229 231 233 234 234 234 236 238 240 240 236 234 234 235 237 237 237 241
252 250 249 247 247 246 246 245 246 247 247 247 246 246 245 244 243 243 244 244 244 242 240 239 239 236 234 232 231 230 226 219 216 215 215 218 222 222 219 220 224 227 227 228 229 230 231 234 235 236 237 238 238 239 241 239 237 237 238 239 240 239 242
254 253 252 251 250 250 249 248 246 246 247 248 248 248 248 247 246 245 244 244 243 242 240 238 239 238 236 234 233 232 229 223 220 218 216 215 218 221 221 223 226 228 230 231 232 233 234 235 235 235 236 238 239 239 241 241 240 239 240 241 242 242 243
257 256 255 254 253 253 252 252 250 248 247 248 249 249 249 249 249 248 247 245 243 242 240 238 238 238 236 235 234 233 232 228 225 224 221 216 216 218 220 223 227 229 230 232 234 236 237 237 237 237 237 238 240 241 242 242 242 242 242 242 242 243 244
257 256 255 255 255 255 255 254 254 252 250 250 250 250 250 250 250 251 249 247 246 244 241 238 237 238 236 234 234 233 232 231 230 230 229 222 218 218 219 221 225 228 229 230 233 235 237 238 238 238 239 239 239 240 241 242 243 243 244 244 244 244 244
256 256 255 255 255 256 256 256 255 254 253 252 251 251 250 250 250 251 251 250 249 247 244 241 239 238 237 235 233 232 232 231 232 234 234 230 224 220 220 221 223 225 226 229 231 231 233 236 237 237 238 239 238 238 240 242 243 244 244 246 247 247 247
255 256 256 255 255 255 256 257 257 256 256 254 253 252 252 251 251 251 251 251 251 250 248 245 243 240 239 238 235 232 231 231 232 235 236 236 231 226 223 223 224 224 224 226 229 230 231 233 236 239 239 238 238 238 239 240 242 244 245 246 247 248 248
256 256 256 255 255 255 256 256 257 258 258 257 256 255 253 252 252 252 251 251 251 251 250 248 246 244 242 241 239 236 233 230 230 233 236 237 236 232 229 227 227 227 226 225 226 228 230 232 233 236 239 239 238 239 239 239 240 242 244 247 249 249 249
255 255 255 255 255 255 255 256 256 257 257 258 257 256 255 253 252 252 251 251 250 250 250 250 248 247 246 245 244 242 239 234 231 231 234 236 237 236 235 233 232 231 231 231 229 227 229 232 233 234 235 237 238 239 239 240 241 241 242 243 246 249 251
254 254 254 255 255 255 256 256 256 256 256 256 257 256 256 254 254 253 252 251 251 250 249 249 248 248 247 246 246 245 244 242 237 233 232 234 236 237 237 237 237 236 236 236 236 234 231 231 233 234 234 234 235 237 238 239 240 242 243 242 243 244 247
255 254 254 254 253 254 255 256 257 257 257 256 255 255 255 255 254 253 253 252 252 251 250 249 249 248 247 247 247 246 246 245 243 239 235 233 234 236 238 238 238 239 239 239 240 240 239 237 235 234 233 233 233 234 236 237 238 239 241 243 244 244 244
256 255 254 254 254 254 253 254 256 257 257 256 256 255 255 255 254 253 253 253 252 252 251 250 250 249 248 247 246 246 246 246 245 244 241 237 235 235 237 238 239 240 240 241 241 242 243 244 243 240 237 235 234 234 234 235 236 237 238 240 243 244 245
257 256 255 256 256 256 255 254 254 254 255 255 256 256 255 255 255 254 254 253 253 253 252 251 250 249 249 248 247 246 246 245 245 246 245 243 240 237 236 238 239 240 241 242 242 243 244 245 246 247 245 241 238 236 236 236 237 237 237 238 240 241 243
259 258 257 257 256 256 257 256 253 253 253 254 255 256 256 256 256 256 255 254 254 253 253 252 250 249 249 248 248 247 246 245 245 245 245 245 244 241 239 238 239 240 241 242 243 243 244 245 246 247 249 248 245 242 241 240 241 241 241 240 239 240 241
260 260 260 260 259 257 255 254 253 253 254 254 254 255 256 257 256 256 256 256 255 254 253 252 251 250 249 249 249 249 248 247 246 244 244 245 245 244 242 241 241 240 240 241 242 243 244 245 246 246 248 249 249 248 247 245 244 245 246 246 244 242 242
259 260 260 260 261 261 256 253 253 253 253 255 254 254 255 257 256 255 255 255 255 254 253 252 252 251 250 250 249 249 249 249 248 247 245 244 244 245 244 244 243 243 242 241 241 242 243 244 245 246 247 248 249 249 250 249 248 248 249 250 249 248 246
255 257 257 255 255 257 256 254 253 252 251 253 254 254 255 256 257 256 255 254 254 254 253 253 253 252 251 251 250 249 249 249 249 249 249 247 246 245 245 245 245 244 244 244 243 243 243 243 244 245 246 247 248 249 249 250 250 250 250 250 251 251 251
251 250 251 247 242 244 248 251 254 254 252 251 253 255 254 254 257 258 256 255 254 254 253 253 253 252 251 251 250 250 249 248 248 249 250 250 249 248 247 246 246 246 245 245 245 246 245 245 245 245 246 247 248 249 249 249 249 249 250 251 251 251 251
253 250 249 246 244 245 248 251 254 255 254 252 252 253 253 252 254 256 256 255 254 254 254 253 253 252 252 251 250 250 249 249 248 248 249 249 250 251 250 249 248 247 247 246 246 246 247 247 247 247 246 247 247 248 249 250 250 249 249 250 250 251 251
258 256 253 251 250 251 251 252 252 253 254 252 251 252 252 250 250 253 255 255 254 255 256 255 254 254 253 252 251 250 249 249 248 248 248 249 250 251 251 251 250 250 249 248 247 247 247 247 248 248 248 248 248 248 248 249 250 250 250 250 250 251 251
260 260 259 257 256 255 255 255 254 253 252 250 250 251 252 250 250 251 253 254 254 255 256 257 256 256 255 254 253 252 250 249 249 249 248 248 249 250 250 251 251 251 251 250 250 249 249 248 248 248 248 248 249 249 249 249 250 250 250 251 251 251 252
262 262 262 262 261 260 259 258 258 256 253 250 249 250 250 249 249 251 253 254 254 254 256 257 257 257 257 256 255 254 252 251 251 250 249 249 249 249 249 250 250 251 251 251 251 251 251 250 250 249 249 249 249 249 250 250 251 251 251 251 251 251 251
263 263 263 263 263 263 262 262 261 260 257 255 252 251 251 250 250 251 252 253 254 254 255 256 257 257 257 257 257 256 255 254 253 252 251 251 250 249 249 249 250 250 251 251 251 251 251 251 251 251 251 251 250 250 250 250 251 252 252 252 253 253 253
263 263 263 263 263 264 264 263 263 263 261 259 257 256 255 254 252 252 252 253 253 255 256 256 257 258 258 258 259 259 258 257 255 255 254 253 253 251 250 249 249 249 250 250 251 251 251 251 251 252 252 252 252 252 251 251 251 252 252 252 253 253 254
262 262 263 263 263 263 264 264 264 264 264 263 261 260 259 258 256 255 253 252 252 253 255 256 257 257 258 259 259 259 259 258 257 256 255 254 254 253 252 251 250 250 250 249 250 250 251 251 251 251 252 252 252 253 253 252 252 252 252 252 252 253 254
262 262 262 262 262 262 263 263 263 264 264 264 263 263 262 261 260 258 257 255 253 252 254 256 256 257 258 259 259 260 260 259 258 257 256 255 255 254 254 253 253 252 251 250 249 250 250 250 251 251 251 251 252 252 253 253 253 252 252 252 253 253 254
263 263 262 262 262 262 262 263 263 263 264 264 264 264 264 263 262 262 260 259 257 255 256 256 256 257 258 259 259 260 260 260 259 259 257 256 256 255 255 255 255 254 253 252 251 250 250 250 250 250 250 251 251 251 252 252 252 253 253 253 253 253 254
263 263 263 263 263 263 263 263 263 264 264 264 265 265 264 264 264 263 263 262 261 260 259 258 258 259 259 259 259 259 260 260 260 259 259 258 257 257 257 256 256 255 255 254 253 252 252 251 251 250 250 250 251 251 251 251 252 252 253 253 253 253 254
264 264 264 264 264 264 264 264 264 264 264 265 265 265 265 265 265 264 264 264 263 262 262 261 261 261 260 260 260 260 259 259 259 259 259 259 259 258 258 257 257 257 256 256 255 254 254 253 252 252 251 250 250 250 251 251 251 251 252 252 253 253 254
265 264 264 264 264 264 264 264 264 264 264 264 264 265 265 265 265 265 265 265 264 263 263 263 263 262 261 261 260 260 259 259 259 259 260 260 259 259 258 258 257 257 257 257 257 256 255 255 254 253 253 252 251 250 250 251 251 251 252 252 252 252 253
264 264 264 264 264 264 264 264 264 264 264 264 264 264 264 265 265 265 265 265 264 264 264 264 263 263 262 261 260 260 260 260 260 260 260 260 259 259 259 259 258 258 258 258 257 257 256 256 255 255 254 253 252 252 251 251 251 251 251 252 252 252 252
262 262 262 263 263 263 263 263 263 263 263 263 263 264 264 264 264 265 265 265 265 264 264 264 263 262 261 261 261 261 261 261 261 260 260 260 260 260 260 259 259 258 258 258 258 258 258 257 256 256 255 254 254 253 252 252 252 251 251 251 252 252 252
261 261 261 261 261 261 262 262 262 262 262 263 263 263 263 263 263 264 264 265 265 264 263 263 262 262 262 262 261 261 261 261 261 261 261 261 261 261 261 261 260 260 259 259 258 258 258 258 258 257 256 255 255 254 253 253 253 253 253 252 252 252 253
260 260 260 260 260 260 260 261 261 262 262 262 262 262 262 262 262 262 263 263 263 262 262 262 262 263 263 263 263 262 262 262 262 262 262 262 262 262 262 262 262 261 261 260 260 259 259 258 258 258 258 257 256 255 255 254 254 254 254 254 254 253 253
259 259 260 260 260 260 260 260 260 260 260 260 261 261 262 262 262 262 261 261 261 262 263 263 263 263 263 264 264 264 264 263 263 263 263 264 264 264 264 264 263 263 262 261 260 260 259 259 258 258 258 258 258 258 257 257 256 256 256 256 256 256 255
Height
10591 10592 10593 10594 10595 10596 10596 10597 10598 10598 10599 10599 10600 10601 10602 10603 10605 10607 10609 10610 10611 10613 10615 10617 10618 10620 10622 10624 10626 10627 10630 10632 10633 10633 10634 10638 10642 10644 10645 10647 10648 10649 10650 10652 10653 10654 10656 10658 10661 10664 10666 10668 10670 10672 10674 10677 10679 10682 10685 10684 10684 10686 10688
10587 10588 10590 10591 10592 10593 10593 10594 10595 10595 10595 10596 10597 10598 10599 10600 10601 10603 10605 10606 10608 10609 10611 10613 10614 10616 10618 10620 10622 10623 10626 10628 10629 10630 10631 10634 10638 10640 10642 10643 10644 10646 10648 10649 10650 10651 10653 10656 10658 10660 10663 10665 10667 10668 10670 10673 10675 10677 10679 10679 10680 10683 10685
10584 10585 10586 10587 10588 10589 10590 10591 10591 10591 10592 10592 10593 10594 10595 10596 10597 10599 10600 10602 10603 10605 10607 10609 10611 10613 10614 10616 10618 10620 10622 10624 10625 10626 10627 10629 10633 10635 10637 10639 10640 10642 10644 10645 10647 10649 10651 10652 10654 10657 10659 10661 10663 10664 10666 10668 10671 10673 10673 10673 10675 10678 10681
10580 10581 10582 10583 10584 10585 10586 10587 10587 10587 10588 10588 10589 10590 10591 10592 10593 10594 10595 10597 10599 10600 10602 10604 10606 10608 10610 10612 10614 10616 10618 10619 10621 10622 10623 10625 10628 10630 10633 10634 10636 10638 10639 10641 10642 10645 10647 10648 10651 10653 10654 10656 10658 10660 10662 10664 10666 10667 10668 10669 10671 10673 10676
10576 10577 10577 10578 10579 10580 10581 10582 10583 10583 10584 10585 10585 10586 10587 10588 10589 10590 10591 10593 10594 10596 10598 10600 10602 10604 10606 10608 10610 10612 10614 10615 10616 10618 10619 10621 10623 10625 10628 10630 10631 10633 10635 10636 10638 10641 10643 10645 10647 10648 10650 10651 10653 10655 10657 10659 10661 10661 10662 10665 10666 10668 10670
10572 10573 10573 10574 10574 10575 10576 10577 10578 10579 10580 10581 10582 10583 10584 10585 10586 10587 10588 10589 10590 10592 10594 10595 10597 10599 10601 10603 10605 10607 10609 10611 10612 10613 10615 10617 10618 10621 10623 10625 10627 10628 10630 10632 10634 10636 10638 10640 10642 10644 10645 10646 10648 10650 10652 10654 10655 10656 10657 10659 10661 10663 10665
10567 10568 10569 10569 10570 10570 10571 10572 10573 10574 10576 10577 10578 10579 10580 10582 10582 10583 10584 10585 10587 10588 10589 10591 10593 10595 10596 10598 10600 10602 10604 10605 10607 10608 10610 10612 10614 10616 10618 10620 10622 10624 10626 10627 10629 10631 10633 10635 10637 10638 10640 10641 10643 10645 10646 10648 10650 10651 10652 10654 10655 10658 10660
10562 10563 10564 10565 10565 10566 10566 10567 10568 10569 10571 10572 10573 10574 10576 10577 10578 10579 10580 10581 10583 10584 10585 10587 10588 10590 10592 10593 10595 10596 10598 10600 10601 10602 10604 10606 10608 10611 10613 10615 10617 10618 10620 10622 10624 10626 10627 10629 10631 10633 10634 10635 10637 10639 10641 10642 10644 10646 10647 10648 10650 10652 10654
10557 10558 10559 10560 10561 10561 10562 10563 10564 10565 10566 10567 10568 10570 10571 10573 10574 10575 10576 10577 10578 10580 10581 10583 10584 10586 10587 10588 10590 10591 10593 10594 10596 10597 10598 10600 10603 10605 10607 10609 10611 10612 10614 10616 10618 10620 10622 10624 10625 10627 10628 10630 10631 10633 10635 10637 10638 10640 10641 10642 10644 10646 10648
10552 10553 10554 10555 10556 10557 10557 10558 10559 10561 10562 10562 10563 10564 10565 10567 10568 10569 10570 10572 10573 10574 10576 10578 10580 10581 10582 10584 10585 10586 10587 10589 10590 10592 10593 10594 10596 10598 10600 10602 10604 10606 10608 10609 10611 10613 10615 10618 10620 10621 10622 10624 10626 10628 10629 10631 10633 10635 10636 10637 10638 10639 10641
10546 10547 10548 10549 10551 10552 10552 10554 10555 10556 10556 10557 10557 10558 10559 10560 10562 10563 10564 10565 10567 10568 10570 10572 10574 10576 10577 10579 10580 10581 10582 10584 10585 10586 10587 10588 10590 10591 10593 10595 10597 10599 10600 10602 10604 10606 10608 10610 10613 10615 10616 10617 10620 10622 10624 10625 10627 10629 10631 10632 10632 10633 10634
10540 10542 10543 10544 10545 10546 10548 10549 10549 10549 10550 10550 10551 10552 10553 10554 10555 10556 10558 10559 10560 10562 10564 10566 10568 10569 10571 10572 10574 10575 10577 10579 10580 10581 10582 10583 10583 10584 10586 10587 10589 10591 10593 10595 10596 10598 10600 10602 10604 10607 10609 10611 10612 10615 10618 10620 10621 10623 10624 10626 10627 10628 10629
10533 10536 10537 10538 10539 10541 10543 10543 10542 10543 10543 10543 10544 10545 10546 10547 10548 10550 10551 10553 10554 10556 10557 10559 10561 10563 10564 10566 10567 10569 10571 10573 10574 10575 10577 10577 10578 10579 10579 10580 10582 10583 10585 10587 10588 10590 10592 10594 10596 10599 10601 10603 10605 10607 10610 10612 10615 10617 10618 10619 10620 10622 10624
10526 10529 10531 10531 10532 10534 10537 10537 10536 10536 10536 10535 10536 10538 10539 10540 10541 10543 10545 10547 10548 10550 10551 10553 10554 10556 10557 10559 10561 10562 10564 10566 10567 10569 10570 10571 10572 10573 10574 10575 10576 10577 10578 10579 10581 10583 10584 10586 10588 10590 10593 10595 10598 10600 10602 10604 10607 10609 10612 10613 10613 10615 10617
10517 10521 10524 10526 10527 10528 10529 10531 10530 10529 10528 10528 10528 10530 10532 10533 10534 10537 10538 10540 10542 10543 10544 10546 10547 10549 10550 10552 10553 10555 10557 10558 10560 10562 10564 10565 10566 10567 10568 10570 10571 10572 10573 10573 10575 10576 10577 10578 10580 10582 10584 10587 10590 10592 10594 10596 10598 10601 10604 10606 10607 10608 10610
10508 10512 10515 10519 10522 10522 10521 10522 10522 10522 10521 10522 10522 10522 10525 10526 10528 10529 10531 10532 10534 10536 10536 10537 10539 10541 10542 10544 10545 10547 10549 10551 10553 10555 10556 10558 10559 10560 10562 10563 10565 10566 10567 10568 10569 10570 10571 10572 10574 10575 10576 10578 10581 10583 10586 10588 10590 10592 10595 10598 10600 10601 10603
10501 10504 10508 10512 10515 10516 10515 10513 10514 10515 10515 10516 10516 10516 10518 10518 10519 10521 10523 10523 10525 10526 10526 10528 10530 10532 10534 10536 10538 10539 10541 10543 10545 10547 10548 10550 10551 10552 10554 10556 10557 10559 10560 10562 10563 10564 10565 10566 10568 10569 10569 10570 10572 10574 10577 10579 10581 10584 10585 10588 10592 10594 10595
10494 10496 10501 10507 10509 10508 10506 10504 10505 10507 10508 10509 10510 10511 10511 10510 10510 10512 10513 10513 10514 10514 10516 10519 10521 10524 10526 10529 10531 10532 10534 10536 10537 10539 10540 10542 10543 10544 10546 10547 10549 10550 10552 10553 10555 10556 10558 10559 10561 10562 10563 10564 10565 10566 10568 10570 10573 10575 10576 10578 10581 10584 10586
10488 10490 10492 10499 10502 10500 10495 10493 10495 10498 10501 10504 10504 10504 10504 10503 10502 10503 10503 10503 10504 10504 10507 10510 10513 10515 10517 10519 10521 10523 10525 10527 10528 10530 10532 10533 10535 10536 10538 10539 10541 10542 10543 10545 10546 10548 10550 10551 10553 10554 10556 10557 10558 10559 10560 10562 10564 10567 10568 10569 10571 10574 10576
10480 10482 10484 10487 10490 10487 10484 10484 10486 10488 10493 10496 10497 10496 10497 10497 10496 10493 10492 10494 10495 10495 10498 10501 10503 10505 10507 10509 10510 10513 10515 10516 10518 10520 10522 10524 10526 10527 10529 10531 10532 10534 10535 10537 10539 10540 10542 10543 10545 10546 10548 10549 10550 10551 10552 10553 10555 10558 10559 10561 10562 10564 10566
10468 10472 10474 10475 10476 10475 10475 10476 10477 10479 10483 10486 10487 10488 10489 10490 10489 10484 10482 10485 10486 10487 10489 10490 10492 10495 10496 10498 10500 10503 10505 10506 10508 10511 10513 10515 10516 10517 10520 10522 10524 10525 10527 10529 10531 10532 10534 10535 10537 10538 10539 10540 10541 10542 10543 10544 10545 10548 10550 10552 10553 10554 10555
10457 10460 10463 10464 10465 10465 10466 10467 10468 10471 10474 10476 10477 10478 10479 10482 10482 10476 10473 10476 10479 10478 10478 10479 10482 10484 10484 10487 10490 10492 10494 10496 10499 10502 10504 10506 10507 10508 10509 10511 10514 10516 10517 10520 10523 10524 10526 10528 10528 10529 10530 10531 10532 10533 10533 10534 10535 10537 10540 10542 10543 10544 10546
10448 10450 10451 10453 10454 10456 10456 10457 10459 10461 10465 10467 10467 10469 10470 10473 10474 10468 10466 10469 10472 10470 10469 10470 10472 10472 10472 10475 10478 10480 10484 10487 10491 10493 10495 10496 10498 10498 10499 10501 10504 10505 10507 10510 10513 10515 10517 10519 10520 10520 10521 10522 10523 10523 10524 10525 10526 10527 10529 10531 10533 10534 10536
10438 10440 10441 10442 10443 10444 10445 10447 10448 10450 10453 10456 10457 10459 10461 10463 10464 10462 10461 10463 10463 10463 10463 10461 10460 10460 10461 10464 10466 10469 10474 10479 10481 10483 10485 10487 10487 10487 10489 10491 10493 10495 10496 10499 10502 10505 10507 10509 10510 10510 10511 10512 10513 10514 10515 10516 10516 10517 10519 10521 10522 10523 10525
10428 10429 10431 10431 10432 10433 10434 10435 10437 10438 10441 10443 10445 10447 10449 10451 10453 10453 10455 10454 10453 10455 10456 10452 10450 10451 10452 10452 10455 10458 10463 10468 10470 10471 10474 10476 10476 10477 10479 10481 10483 10485 10486 10488 10491 10494 10496 10497 10499 10500 10501 10502 10504 10505 10506 10507 10508 10508 10509 10511 10512 10512 10513
10418 10419 10420 10421 10422 10422 10423 10424 10425 10426 10428 10431 10433 10435 10436 10438 10440 10442 10444 10444 10445 10448 10447 10443 10442 10443 10442 10443 10446 10448 10452 10456 10457 10458 10462 10464 10463 10464 10468 10470 10472 10474 10475 10477 10479 10482 10484 10486 10487 10489 10490 10491 10493 10495 10496 10498 10499 10498 10499 10500 10501 10501 10500
10409 10410 10410 10410 10411 10411 10412 10413 10414 10414 10416 10419 10422 10423 10423 10425 10427 10429 10431 10433 10437 10441 10438 10433 10433 10434 10433 10435 10437 10437 10440 10444 10444 10445 10450 10451 10450 10451 10454 10457 10460 10462 10463 10465 10467 10470 10472 10473 10475 10478 10479 10480 10482 10484 10485 10487 10487 10488 10488 10489 10490 10490 10490
10399 10400 10399 10399 10400 10400 10401 10402 10402 10403 10403 10406 10409 10410 10411 10412 10413 10415 10418 10421 10427 10433 10428 10422 10422 10424 10425 10427 10427 10426 10428 10431 10431 10433 10437 10438 10437 10438 10441 10444 10447 10448 10449 10452 10455 10458 10459 10460 10462 10465 10467 10468 10470 10472 10473 10473 10474 10475 10476 10477 10479 10480 10481
10386 10387 10387 10388 10389 10389 10390 10391 10391 10392 10392 10394 10396 10397 10398 10399 10399 10402 10406 10409 10416 10421 10416 10410 10413 10416 10418 10419 10417 10415 10416 10417 10419 10422 10424 10425 10425 10427 10430 10432 10433 10434 10436 10439 10443 10447 10447 10446 10448 10451 10454 10456 10458 10459 10460 10460 10460 10462 10463 10465 10468 10470 10471
10374 10375 10375 10375 10376 10377 10379 10380 10380 10381 10381 10382 10384 10385 10385 10385 10386 10391 10394 10397 10403 10407 10401 10399 10405 10409 10409 10409 10407 10405 10405 10406 10408 10409 10410 10412 10414 10416 10418 10419 10419 10421 10423 10426 10430 10433 10433 10432 10434 10438 10441 10443 10445 10446 10446 10446 10447 10449 10451 10453 10456 10458 10459
10362 10363 10363 10364 10365 10366 10367 10368 10369 10370 10370 10371 10372 10372 10373 10373 10374 10379 10383 10385 10389 10391 10388 10391 10397 10397 10397 10397 10396 10394 10394 10394 10395 10397 10399 10401 10403 10405 10405 10406 10407 10408 10410 10413 10416 10418 10418 10418 10420 10424 10427 10429 10431 10432 10432 10433 10434 10437 10440 10442 10443 10445 10445
10349 10351 10352 10353 10354 10355 10356 10356 10357 10358 10359 10359 10359 10360 10362 10361 10361 10367 10372 10372 10374 10377 10378 10381 10384 10384 10384 10385 10383 10382 10381 10382 10384 10386 10388 10390 10391 10392 10392 10393 10395 10397 10398 10400 10401 10403 10403 10404 10406 10409 10411 10413 10416 10418 10418 10419 10421 10424 10426 10429 10430 10431 10432
10337 10338 10339 10340 10342 10343 10344 10345 10346 10347 10347 10347 10348 10349 10350 10350 10352 10356 10359 10358 10361 10366 10368 10370 10371 10371 10370 10370 10369 10370 10370 10370 10373 10375 10377 10378 10378 10379 10380 10380 10383 10387 10387 10386 10387 10388 10389 10391 10392 10394 10395 10398 10401 10402 10403 10405 10407 10410 10413 10415 10416 10417 10419
10324 10325 10327 10328 10329 10330 10331 10332 10334 10335 10335 10336 10337 10338 10338 10340 10343 10345 10345 10346 10350 10355 10356 10357 10356 10356 10355 10356 10357 10359 10359 10359 10361 10362 10364 10365 10366 10367 10367 10368 10371 10375 10375 10373 10374 10375 10376 10377 10378 10380 10381 10382 10385 10387 10389 10391 10393 10395 10398 10400 10402 10403 10405
10311 10314 10316 10317 10318 10318 10318 10319 10321 10323 10325 10325 10326 10326 10326 10328 10332 10335 10335 10336 10338 10341 10343 10342 10341 10341 10342 10344 10346 10346 10347 10348 10349 10349 10351 10353 10353 10354 10355 10355 10358 10362 10362 10361 10362 10363 10363 10363 10364 10365 10367 10368 10370 10372 10375 10377 10378 10380 10382 10385 10387 10389 10391
10300 10302 10304 10304 10306 10307 10307 10308 10310 10312 10314 10314 10314 10315 10315 10317 10322 10324 10325 10324 10325 10327 10329 10329 10329 10330 10331 10332 10333 10334 10336 10338 10338 10337 10339 10341 10341 10343 10344 10344 10346 10349 10349 10349 10350 10351 10351 10351 10351 10352 10352 10353 10355 10357 10360 10363 10365 10366 10368 10370 10372 10375 10377
10290 10292 10293 10293 10295 10296 10298 10300 10301 10302 10303 10303 10304 10304 10304 10308 10312 10314 10312 10311 10313 10316 10318 10319 10319 10320 10320 10320 10322 10323 10325 10326 10327 10327 10328 10330 10331 10331 10332 10333 10334 10336 10337 10337 10338 10338 10338 10338 10339 10339 10340 10340 10341 10343 10346 10349 10351 10353 10355 10357 10358 10360 10362